KB1DML-5 Weather Reports


Display with metric or nautical units.
time (UTC)temp
F
wind
direction
speed
MPH
gust
MPH
rain 1hr
in
rain 24hr
in
rain mn
in
humidity
%
barometer
mb
20220126103016 23 315 10.0 18.0 0.00 0.07 0.00 56 1022.4
20220126102515 23 338 9.0 16.0 0.00 0.07 0.00 54 1022.5
20220126102015 23 315 11.0 19.0 0.00 0.07 0.00 55 1022.4
20220126101515 23 338 9.0 16.0 0.00 0.07 0.00 53 1022.4
20220126101016 23 315 12.0 20.0 0.00 0.07 0.00 54 1022.4
20220126100515 23 315 13.0 21.0 0.00 0.07 0.00 56 1022.3
20220126100015 23 315 12.0 19.0 0.00 0.07 0.00 55 1022.3
20220126095515 23 315 11.0 17.0 0.00 0.07 0.00 53 1022.4
20220126095015 23 315 11.0 23.0 0.00 0.07 0.00 55 1022.3
20220126094516 23 338 10.0 19.0 0.00 0.07 0.00 52 1022.2
20220126094017 23 315 9.0 18.0 0.00 0.07 0.00 54 1022.2
20220126093517 23 315 10.0 18.0 0.00 0.07 0.00 52 1022.1
20220126093017 24 315 10.0 18.0 0.00 0.07 0.00 54 1022.2
20220126092517 24 338 12.0 18.0 0.00 0.07 0.00 52 1022.2
20220126092017 24 338 11.0 21.0 0.00 0.07 0.00 52 1022.1
20220126091517 24 338 10.0 18.0 0.00 0.07 0.00 53 1022.1
20220126091017 24 338 9.0 16.0 0.00 0.07 0.00 54 1022.0
20220126090517 24 315 10.0 19.0 0.00 0.07 0.00 52 1021.9
20220126090017 24 315 9.0 17.0 0.00 0.07 0.00 52 1021.8
20220126085517 24 315 9.0 19.0 0.00 0.07 0.00 52 1022.0
20220126085017 24 338 10.0 15.0 0.00 0.07 0.00 53 1022.0
20220126084518 24 315 10.0 15.0 0.00 0.07 0.00 55 1021.9
20220126084016 24 315 9.0 18.0 0.00 0.07 0.00 55 1021.9
20220126083516 24 338 10.0 19.0 0.00 0.07 0.00 53 1021.8
20220126083017 24 338 10.0 17.0 0.00 0.07 0.00 54 1021.8
20220126082516 24 315 11.0 19.0 0.00 0.07 0.00 54 1021.7
20220126082016 24 315 12.0 24.0 0.00 0.07 0.00 54 1021.8
20220126081516 24 315 13.0 21.0 0.00 0.07 0.00 52 1021.7
20220126081016 25 315 11.0 21.0 0.00 0.07 0.00 54 1021.7
20220126080516 25 315 11.0 20.0 0.00 0.07 0.00 53 1021.6
20220126080016 25 315 11.0 21.0 0.00 0.07 0.00 56 1021.6
20220126075516 25 338 12.0 22.0 0.00 0.07 0.00 52 1021.5
20220126075016 25 315 10.0 21.0 0.00 0.07 0.00 54 1021.4
20220126074516 25 315 13.0 23.0 0.00 0.07 0.00 51 1021.3
20220126074016 25 338 12.0 21.0 0.00 0.07 0.00 53 1021.2
20220126073516 25 315 14.0 26.0 0.00 0.07 0.00 53 1021.1
20220126073016 25 315 14.0 25.0 0.00 0.07 0.00 54 1021.2
20220126072516 25 315 13.0 23.0 0.00 0.07 0.00 54 1021.2
20220126072016 25 315 14.0 24.0 0.00 0.07 0.00 55 1021.1
20220126071516 26 315 13.0 23.0 0.00 0.07 0.00 53 1021.1
20220126071016 26 315 13.0 23.0 0.00 0.07 0.00 57 1021.0
20220126070516 26 338 13.0 24.0 0.00 0.07 0.00 53 1021.0
20220126070016 26 315 12.0 24.0 0.00 0.07 0.00 54 1020.9
20220126065515 26 338 12.0 23.0 0.00 0.07 0.00 59 1020.7
20220126065016 26 315 15.0 24.0 0.00 0.07 0.00 59 1020.6
20220126064515 26 315 14.0 20.0 0.00 0.07 0.00 58 1020.6
20220126064017 26 315 14.0 25.0 0.00 0.07 0.00 58 1020.4
20220126063515 26 315 13.0 22.0 0.00 0.07 0.00 59 1020.4
20220126063015 26 338 13.0 22.0 0.00 0.07 0.00 57 1020.3
20220126062515 27 338 12.0 26.0 0.00 0.07 0.00 57 1020.3
20220126062015 27 338 10.0 19.0 0.00 0.07 0.00 60 1020.2
20220126061515 27 338 11.0 20.0 0.00 0.07 0.00 58 1020.2
20220126061015 27 315 11.0 22.0 0.00 0.07 0.00 58 1020.1
20220126060516 27 338 10.0 19.0 0.00 0.07 0.00 59 1020.0
20220126060017 27 338 12.0 20.0 0.00 0.07 0.00 58 1019.9
20220126055516 28 338 9.0 24.0 0.00 0.07 0.00 60 1019.9
20220126055015 28 315 11.0 24.0 0.00 0.07 0.00 58 1020.0
20220126054516 28 338 8.0 15.0 0.00 0.07 0.00 58 1020.0
20220126054016 28 338 10.0 18.0 0.00 0.07 0.00 57 1020.1
20220126053515 28 338 10.0 19.0 0.00 0.07 0.00 58 1020.0
20220126053016 28 0 7.0 16.0 0.00 0.07 0.00 58 1019.9
20220126052516 29 0 9.0 15.0 0.00 0.07 0.00 59 1020.1
20220126052015 29 0 8.0 15.0 0.00 0.07 0.00 59 1019.9
20220126051515 29 338 7.0 14.0 0.00 0.07 0.00 58 1019.9
20220126051016 29 338 8.0 16.0 0.00 0.07 0.00 58 1019.8
20220126050515 29 338 8.0 15.0 0.00 0.07 0.00 58 1019.6
20220126050015 29 315 9.0 16.0 0.00 0.07 0.07 58 1019.7
20220126045516 29 315 8.0 14.0 0.00 0.07 0.07 59 1019.7
20220126045017 29 338 7.0 13.0 0.00 0.07 0.07 59 1019.6
20220126044516 29 338 9.0 16.0 0.00 0.07 0.07 58 1019.6
20220126044015 29 315 7.0 14.0 0.00 0.07 0.07 60 1019.7
20220126043515 29 315 8.0 17.0 0.00 0.07 0.07 60 1019.7
20220126043015 29 315 8.0 16.0 0.00 0.07 0.07 60 1019.7
20220126042516 29 315 10.0 17.0 0.00 0.07 0.07 60 1019.7
20220126042015 30 338 7.0 15.0 0.00 0.07 0.07 60 1019.6
20220126041515 30 315 8.0 17.0 0.00 0.07 0.07 59 1019.7
20220126041015 30 315 9.0 16.0 0.00 0.07 0.07 59 1019.7
20220126040515 30 338 9.0 18.0 0.00 0.07 0.07 60 1019.6
20220126040015 30 338 10.0 19.0 0.00 0.07 0.07 60 1019.6
20220126035515 30 338 9.0 18.0 0.00 0.07 0.07 60 1019.6
20220126035015 30 315 10.0 16.0 0.00 0.07 0.07 63 1019.6
20220126034515 30 315 7.0 13.0 0.00 0.07 0.07 63 1019.6
20220126034015 30 315 8.0 18.0 0.00 0.07 0.07 61 1019.6
20220126033515 30 338 7.0 14.0 0.00 0.07 0.07 59 1019.6
20220126033016 30 315 10.0 17.0 0.00 0.07 0.07 60 1019.5
20220126032515 30 315 9.0 17.0 0.00 0.07 0.07 61 1019.5
20220126032015 30 315 10.0 18.0 0.00 0.07 0.07 61 1019.3
20220126031515 30 315 10.0 17.0 0.00 0.07 0.07 60 1019.3
20220126031017 30 315 9.0 14.0 0.00 0.07 0.07 64 1019.2
20220126030515 30 293 8.0 13.0 0.00 0.07 0.07 65 1019.1
20220126030015 30 293 9.0 14.0 0.00 0.07 0.07 66 1019.1
20220126025515 30 293 8.0 12.0 0.00 0.07 0.07 65 1018.9
20220126025015 30 293 7.0 11.0 0.00 0.07 0.07 64 1019.0
20220126024515 30 293 7.0 11.0 0.00 0.07 0.07 64 1018.9
20220126024015 30 270 7.0 13.0 0.00 0.07 0.07 64 1018.8
20220126023515 30 293 9.0 15.0 0.00 0.07 0.07 63 1018.9
20220126023015 30 293 9.0 14.0 0.00 0.07 0.07 62 1018.9
20220126022515 30 293 8.0 12.0 0.00 0.07 0.07 63 1018.8
20220126022016 31 293 8.0 14.0 0.00 0.07 0.07 63 1018.7
20220126021515 31 293 10.0 15.0 0.00 0.07 0.07 62 1018.7
20220126021015 31 293 9.0 15.0 0.00 0.07 0.07 62 1018.5
20220126020515 31 293 10.0 13.0 0.00 0.07 0.07 61 1018.4
20220126020015 31 293 10.0 14.0 0.00 0.07 0.07 61 1018.3
20220126015515 31 293 10.0 17.0 0.00 0.07 0.07 61 1018.3
20220126015017 31 293 8.0 13.0 0.00 0.07 0.07 62 1018.3
20220126014518 31 293 9.0 14.0 0.00 0.07 0.07 61 1018.2
20220126014017 31 293 10.0 15.0 0.00 0.07 0.07 61 1018.0
20220126013518 32 293 9.0 12.0 0.00 0.07 0.07 62 1018.0
20220126013017 32 293 9.0 13.0 0.00 0.07 0.07 64 1017.9
20220126012517 32 293 11.0 15.0 0.00 0.07 0.07 62 1017.9
20220126012017 32 293 11.0 15.0 0.00 0.07 0.07 62 1017.8
20220126011517 32 293 11.0 16.0 0.00 0.07 0.07 61 1017.7
20220126011017 32 293 11.0 17.0 0.00 0.07 0.07 62 1018.0
20220126010517 32 293 11.0 16.0 0.00 0.07 0.07 62 1017.9
20220126010018 32 293 10.0 16.0 0.00 0.07 0.07 63 1017.8
20220126005517 33 293 10.0 16.0 0.00 0.07 0.07 64 1017.7
20220126005017 33 293 13.0 17.0 0.00 0.07 0.07 65 1017.6
20220126004517 33 293 13.0 20.0 0.00 0.07 0.07 63 1017.7
20220126004017 33 293 10.0 17.0 0.00 0.07 0.07 64 1017.4
20220126003517 33 293 13.0 20.0 0.00 0.07 0.07 66 1017.2
20220126003017 33 293 13.0 21.0 0.00 0.07 0.07 64 1017.2
20220126002517 33 293 12.0 22.0 0.00 0.07 0.07 64 1017.1
20220126002017 33 293 9.0 14.0 0.00 0.07 0.07 65 1017.2
20220126001517 33 293 9.0 14.0 0.00 0.07 0.07 67 1017.1
20220126001017 33 270 6.0 13.0 0.00 0.07 0.07 66 1017.1
20220126000518 33 270 6.0 15.0 0.00 0.07 0.07 68 1017.1
20220126000017 33 293 7.0 12.0 0.00 0.07 0.07 67 1017.0
20220125235517 34 293 8.0 14.0 0.00 0.07 0.07 67 1017.0
20220125235017 34 293 8.0 15.0 0.00 0.07 0.07 66 1016.9
20220125234517 34 293 7.0 11.0 0.00 0.07 0.07 67 1016.9
20220125234017 34 270 4.0 10.0 0.00 0.07 0.07 69 1016.7
20220125233517 34 270 4.0 7.0 0.00 0.07 0.07 69 1016.6
20220125233017 35 270 3.0 8.0 0.00 0.07 0.07 68 1016.4
20220125232517 35 293 8.0 13.0 0.00 0.07 0.07 65 1016.4
20220125232017 35 293 9.0 15.0 0.00 0.07 0.07 65 1016.3
20220125231517 35 293 9.0 15.0 0.00 0.07 0.07 66 1016.2
20220125231017 35 293 8.0 13.0 0.00 0.07 0.07 67 1016.1
20220125230516 35 293 8.0 16.0 0.00 0.07 0.07 66 1015.9
20220125230017 36 293 9.0 14.0 0.00 0.07 0.07 66 1015.7
20220125225517 36 293 9.0 15.0 0.00 0.07 0.07 66 1015.7
20220125225017 36 293 10.0 16.0 0.00 0.07 0.07 66 1015.6
20220125224517 36 293 9.0 14.0 0.00 0.07 0.07 69 1015.5
20220125224016 35 293 6.0 11.0 0.00 0.07 0.07 71 1015.3
20220125223517 35 270 3.0 8.0 0.00 0.07 0.07 73 1015.2
20220125223017 35 270 2.0 3.0 0.00 0.07 0.07 73 1015.0
20220125222516 35 270 2.0 3.0 0.00 0.07 0.07 72 1014.9
20220125222019 36 270 2.0 3.0 0.00 0.07 0.07 72 1014.8
20220125221517 36 270 2.0 4.0 0.00 0.07 0.07 72 1014.7
20220125221016 36 270 3.0 5.0 0.00 0.07 0.07 71 1014.6
20220125220517 36 270 3.0 6.0 0.00 0.07 0.07 71 1014.6
20220125220016 36 270 3.0 6.0 0.00 0.07 0.07 71 1014.5
20220125215516 36 270 3.0 8.0 0.00 0.07 0.07 70 1014.5
20220125215016 36 248 2.0 4.0 0.00 0.07 0.07 70 1014.4
20220125214517 36 248 2.0 4.0 0.00 0.07 0.07 70 1014.2
20220125214017 37 248 2.0 4.0 0.00 0.07 0.07 69 1014.1
20220125213516 37 270 3.0 8.0 0.00 0.07 0.07 69 1014.2
20220125213016 37 270 5.0 10.0 0.00 0.07 0.07 68 1014.1
20220125212517 37 270 5.0 10.0 0.00 0.07 0.07 69 1014.1
20220125212017 37 270 6.0 10.0 0.00 0.07 0.07 67 1013.9
20220125211516 38 293 7.0 15.0 0.00 0.07 0.07 67 1014.0
20220125211016 38 270 5.0 12.0 0.00 0.07 0.07 68 1013.9
20220125210516 38 270 5.0 9.0 0.00 0.07 0.07 67 1013.7
20220125210017 38 293 6.0 12.0 0.00 0.07 0.07 68 1013.5
20220125205516 38 293 6.0 10.0 0.00 0.07 0.07 67 1013.6
20220125205016 38 270 7.0 13.0 0.00 0.07 0.07 68 1013.6
20220125204516 38 270 6.0 11.0 0.00 0.07 0.07 69 1013.6
20220125204017 38 270 6.0 11.0 0.00 0.07 0.07 69 1013.6
20220125203516 38 270 5.0 10.0 0.00 0.07 0.07 69 1013.6
20220125203018 38 293 6.0 10.0 0.00 0.07 0.07 69 1013.5
20220125202516 38 293 6.0 10.0 0.00 0.07 0.07 69 1013.6
20220125202017 38 293 5.0 8.0 0.00 0.07 0.07 71 1013.6
20220125201516 38 270 4.0 8.0 0.00 0.07 0.07 72 1013.5
20220125201016 38 248 3.0 9.0 0.00 0.07 0.07 72 1013.4
20220125200516 38 270 3.0 6.0 0.00 0.07 0.07 72 1013.4
20220125200017 38 248 5.0 10.0 0.00 0.07 0.07 72 1013.3
20220125195517 38 270 4.0 10.0 0.00 0.07 0.07 72 1013.3
20220125195016 38 270 3.0 8.0 0.00 0.07 0.07 72 1013.2
20220125194516 38 293 8.0 15.0 0.00 0.07 0.07 72 1013.0
20220125194016 38 293 7.0 13.0 0.00 0.07 0.07 72 1012.7
20220125193517 38 293 9.0 15.0 0.00 0.07 0.07 72 1012.7
20220125193016 38 293 8.0 14.0 0.00 0.07 0.07 73 1012.5
20220125192516 38 293 7.0 11.0 0.00 0.07 0.07 73 1012.3
20220125192016 39 293 6.0 9.0 0.00 0.07 0.07 74 1012.2
20220125191516 39 293 7.0 11.0 0.00 0.07 0.07 73 1012.2
20220125191017 39 293 7.0 13.0 0.00 0.07 0.07 73 1012.2
20220125190516 39 293 9.0 14.0 0.00 0.07 0.07 72 1012.1
20220125190016 39 270 6.0 13.0 0.00 0.07 0.07 74 1012.2
20220125185516 39 270 5.0 8.0 0.00 0.07 0.07 75 1012.2
20220125185016 39 270 4.0 9.0 0.00 0.07 0.07 75 1012.2
20220125184516 39 270 4.0 9.0 0.00 0.07 0.07 75 1012.1
20220125184016 39 270 5.0 10.0 0.00 0.07 0.07 75 1012.1
20220125183516 39 270 6.0 9.0 0.00 0.07 0.07 75 1012.2
20220125183017 39 270 7.0 12.0 0.00 0.07 0.07 75 1012.1
20220125182516 39 293 10.0 16.0 0.00 0.07 0.07 73 1012.1
20220125182016 39 293 8.0 15.0 0.00 0.07 0.07 73 1012.2
20220125181516 39 293 7.0 14.0 0.00 0.07 0.07 75 1012.3
20220125181016 39 248 6.0 10.0 0.00 0.07 0.07 75 1012.4
20220125180517 39 293 8.0 14.0 0.00 0.07 0.07 76 1012.5
20220125180016 38 293 8.0 14.0 0.00 0.07 0.07 76 1012.3
20220125175516 38 293 9.0 14.0 0.00 0.07 0.07 76 1012.4
20220125175016 38 293 7.0 12.0 0.00 0.07 0.07 77 1012.5
20220125174518 38 270 6.0 12.0 0.00 0.07 0.07 79 1012.4
20220125174016 38 270 6.0 12.0 0.00 0.07 0.07 78 1012.4
20220125173516 38 270 6.0 13.0 0.00 0.07 0.07 79 1012.2
20220125173016 38 293 7.0 12.0 0.00 0.07 0.07 79 1012.2
20220125172517 38 293 8.0 14.0 0.00 0.07 0.07 79 1012.2
20220125172016 38 248 4.0 8.0 0.00 0.07 0.07 81 1012.4
20220125171516 38 270 4.0 10.0 0.00 0.07 0.07 82 1012.3
20220125171016 37 293 6.0 11.0 0.00 0.07 0.07 82 1012.4
20220125170516 37 270 4.0 10.0 0.00 0.07 0.07 83 1012.4
20220125170016 37 270 4.0 10.0 0.00 0.07 0.07 83 1012.5
20220125165516 37 270 5.0 10.0 0.00 0.07 0.07 83 1012.5
20220125165016 37 270 5.0 10.0 0.00 0.07 0.07 84 1012.6
20220125164516 37 248 4.0 9.0 0.00 0.07 0.07 84 1012.5
20220125164016 37 293 7.0 12.0 0.00 0.07 0.07 85 1012.6
20220125163518 37 293 5.0 11.0 0.00 0.07 0.07 85 1012.6
20220125163016 37 293 5.0 12.0 0.00 0.07 0.07 86 1012.4
20220125162516 37 270 6.0 13.0 0.00 0.07 0.07 87 1012.5
20220125162016 37 315 7.0 12.0 0.01 0.07 0.07 87 1012.6
20220125161516 37 270 4.0 10.0 0.01 0.07 0.07 88 1012.7
20220125161016 37 270 5.0 11.0 0.01 0.07 0.07 89 1012.7
20220125160516 37 293 5.0 9.0 0.01 0.07 0.07 89 1012.6
20220125160016 37 270 5.0 11.0 0.01 0.07 0.07 89 1012.7
20220125155516 37 293 6.0 11.0 0.01 0.07 0.07 89 1012.7
20220125155015 37 293 6.0 12.0 0.01 0.07 0.07 90 1012.6
20220125154516 37 293 5.0 10.0 0.01 0.07 0.07 90 1012.5
20220125154016 37 293 5.0 15.0 0.01 0.07 0.07 90 1012.5
20220125153518 37 270 4.0 9.0 0.01 0.07 0.07 91 1012.5
20220125153016 36 270 5.0 11.0 0.02 0.07 0.07 91 1012.5
20220125152516 36 293 6.0 12.0 0.02 0.07 0.07 91 1012.6
20220125152016 36 293 5.0 12.0 0.01 0.06 0.06 91 1012.5
20220125151516 36 270 5.0 10.0 0.01 0.06 0.06 91 1012.6
20220125151016 36 270 5.0 11.0 0.01 0.06 0.06 92 1012.6
20220125150516 36 293 4.0 9.0 0.01 0.06 0.06 91 1012.5
20220125150015 36 248 3.0 7.0 0.01 0.06 0.06 92 1012.6
20220125145515 36 270 2.0 7.0 0.01 0.06 0.06 92 1012.6
20220125145016 36 270 1.0 4.0 0.02 0.06 0.06 92 1012.5
20220125144516 36 248 2.0 6.0 0.02 0.06 0.06 92 1012.5
20220125144016 36 248 2.0 6.0 0.02 0.06 0.06 92 1012.4
20220125143516 36 270 2.0 6.0 0.02 0.06 0.06 92 1012.3
20220125143015 36 248 2.0 5.0 0.01 0.05 0.05 92 1012.3
20220125142516 36 248 2.0 5.0 0.01 0.05 0.05 92 1012.3
20220125142015 36 225 2.0 6.0 0.02 0.05 0.05 92 1012.2
20220125141518 36 248 3.0 6.0 0.02 0.05 0.05 92 1012.1
20220125141016 36 225 4.0 6.0 0.02 0.05 0.05 92 1012.1
20220125140515 36 225 4.0 7.0 0.02 0.05 0.05 91 1012.0
20220125140017 35 225 5.0 8.0 0.02 0.05 0.05 91 1011.9
20220125135516 36 225 7.0 10.0 0.03 0.05 0.05 91 1011.7
20220125135016 35 225 7.0 9.0 0.02 0.04 0.04 91 1011.8
20220125134516 36 225 7.0 10.0 0.02 0.04 0.04 91 1011.7
20220125134016 36 225 8.0 10.0 0.02 0.04 0.04 91 1011.7
20220125133515 36 225 8.0 12.0 0.03 0.04 0.04 91 1011.6
20220125133016 36 225 7.0 11.0 0.03 0.04 0.04 91 1011.6
20220125132515 36 225 7.0 8.0 0.04 0.04 0.04 91 1011.6
20220125132015 36 225 7.0 10.0 0.03 0.03 0.03 91 1011.5
20220125131515 36 225 7.0 10.0 0.03 0.03 0.03 91 1011.5
20220125131015 36 225 7.0 11.0 0.03 0.03 0.03 91 1011.6
20220125130516 36 225 8.0 12.0 0.03 0.03 0.03 91 1011.5
20220125130015 36 225 8.0 13.0 0.03 0.03 0.03 91 1011.4
20220125125515 36 225 8.0 12.0 0.02 0.02 0.02 91 1011.4
20220125125015 36 225 9.0 12.0 0.02 0.02 0.02 91 1011.4
20220125124518 36 225 8.0 12.0 0.02 0.02 0.02 91 1011.3
20220125124015 36 225 10.0 13.0 0.02 0.02 0.02 91 1011.2
20220125123515 36 203 11.0 15.0 0.01 0.01 0.01 91 1011.2
20220125123015 36 225 10.0 14.0 0.01 0.01 0.01 91 1011.2
20220125122515 36 203 10.0 13.0 0.00 0.00 0.00 91 1011.1
20220125122015 36 203 12.0 16.0 0.00 0.00 0.00 91 1011.2
20220125121515 36 203 12.0 15.0 0.00 0.00 0.00 91 1011.1
20220125121015 36 203 12.0 19.0 0.00 0.00 0.00 90 1010.9
20220125120515 36 203 13.0 16.0 0.00 0.00 0.00 91 1010.9
20220125120015 36 203 14.0 19.0 0.00 0.00 0.00 91 1010.9
20220125115515 36 203 14.0 20.0 0.00 0.00 0.00 90 1011.0
20220125115015 36 203 14.0 17.0 0.00 0.00 0.00 90 1011.1
20220125114515 36 203 13.0 18.0 0.00 0.00 0.00 90 1011.1
20220125114015 36 203 14.0 19.0 0.00 0.00 0.00 90 1010.9
20220125113516 36 203 15.0 20.0 0.00 0.00 0.00 90 1010.9
20220125113015 36 203 15.0 20.0 0.00 0.00 0.00 90 1011.0
20220125112515 35 203 15.0 20.0 0.00 0.00 0.00 90 1011.0
20220125112015 35 203 14.0 20.0 0.00 0.00 0.00 90 1011.1
20220125111515 35 203 14.0 19.0 0.00 0.00 0.00 90 1011.2
20220125111015 35 203 14.0 18.0 0.00 0.00 0.00 89 1011.1
20220125110516 35 203 15.0 21.0 0.00 0.00 0.00 89 1011.0
20220125110015 35 203 15.0 19.0 0.00 0.00 0.00 89 1011.1
20220125105515 35 203 14.0 20.0 0.00 0.00 0.00 89 1011.0
20220125105015 35 203 13.0 16.0 0.00 0.00 0.00 89 1011.0
20220125104515 35 203 13.0 18.0 0.00 0.00 0.00 89 1011.1
20220125104017 35 203 12.0 17.0 0.00 0.00 0.00 89 1010.9
20220125103515 35 203 12.0 15.0 0.00 0.00 0.00 89 1011.1